BSAT-3C (JCSAT-110R)

Last updated on Sun Dec 14 2025 00:02:50 GMT+0000 (Coordinated Universal Time)

1 37776U 11041B 25347.22538179 -.00000337 00000+0 00000+0 0 9997 2 37776 0.0180 29.6893 0000103 131.7219 111.8326 1.00273217 48610
UTC large
Height (km)
Speed (km/s)
/
Latitude / Longitude
Inclination (degrees)
Orbital Period (minutes)
Azimuth
Elevation
Range (km)
Doppler Factor

Next 0 passes for location: London (51.5072 / 0.1276)

Sorry there are no passes over London.